Location: Bermeries
(50.2863°N, 3.7551°E)
Time: 03:28:40
(UTC+00:00)

Cosmos 381 Rocket - Pass Details

Date: 23 May 2024
Orbit: 955 x 995 km, 74.0° (Epoch: 17 June)

Event Time Altitude Azimuth Distance (km) Brightness Sun altitude
Rises 00:28:58 0° 334° (NNW) 3,725 8.4 -18.3°
Reaches altitude 10° 00:31:32 10° 333° (NNW) 2,770 7.6 -18.2°
Maximum altitude 00:37:57 76° 250° (WSW) 1,026 4.5 -18.0°
Enters shadow 00:41:55 25° 169° (S) 1,888 5.5 -17.8°
